Hourly Data Report for September 07, 2017

All times are specified in Local Standard Time (LST). Add 1 hour to adjust for Daylight Saving Time where and when it is observed.

CORAL HARBOUR A
NUNAVUT

64°11'36.000" N
83°21'34.000" W
62.20 m
2301002
71915
YZS

Download Data

Hourly Data (September 2017)
Hourly Data Report for September 7, 2017
Temp Definition
°C
Dew Point Temp Definition
°C
Rel Hum Definition
%
Wind Dir Definition
10's deg

Wind Spd Definition
km/h
Visibility Definition
km
Stn Press Definition
kPa
Hmdx Definition


Wind Chill Definition


Weather Definition


TIME
00:00 Legend Double Dagger -0.6 -2.5 87 1 3 24.1 101.17   -2 LegendNANA
01:00 Legend Double Dagger -0.4 -1.9 90 36 1 24.1 101.18   -1 Mostly Cloudy
02:00 Legend Double Dagger -0.3 -2.6 85 9 4 24.1 101.18   -2 LegendNANA
03:00 Legend Double Dagger -0.1 -2.3 85 14 6 24.1 101.19   -2 LegendNANA
04:00 Legend Double Dagger 0.0 -2.5 83 16 7 24.1 101.19   -2 Mostly Cloudy
05:00 Legend Double Dagger 0.0 -2.4 84 14 9 24.1 101.18   -3 LegendNANA
06:00 Legend Double Dagger 0.2 -1.9 86 21 4 24.1 101.21     LegendNANA
07:00 Legend Double Dagger 0.5 -1.5 87 16 15 24.1 101.22     Snow
08:00 Legend Double Dagger 1.5 -1.3 82 19 13 24.1 101.20     LegendNANA
09:00 Legend Double Dagger 1.7 -0.8 83 20 12 24.1 101.18     LegendNANA
10:00 Legend Double Dagger 2.6 -1.3 76 18 19 24.1 101.13     Mostly Cloudy
11:00 Legend Double Dagger 3.2 -1.7 71 18 21 24.1 101.10     LegendNANA
12:00 Legend Double Dagger 3.6 -0.7 74 17 27 24.1 101.07     LegendNANA
13:00 Legend Double Dagger 4.3 -0.9 69 20 28 24.1 101.01     Mostly Cloudy
14:00 Legend Double Dagger 5.3 -1.1 63 23 17 24.1 100.94     LegendNANA
15:00 Legend Double Dagger 5.2 -0.2 68 19 22 24.1 100.90     LegendNANA
16:00 Legend Double Dagger 6.0 -0.9 61 23 23 24.1 100.86     Mostly Cloudy
17:00 Legend Double Dagger 5.5 -0.6 65 23 27 24.1 100.81     LegendNANA
18:00 Legend Double Dagger 4.9 0.3 72 24 17 24.1 100.78     LegendNANA
19:00 Legend Double Dagger 4.3 1.3 81 21 18 24.1 100.70     Cloudy
20:00 Legend Double Dagger 4.1 1.3 82 21 18 24.1 100.67     LegendNANA
21:00 Legend Double Dagger 4.0 0.6 78 22 22 24.1 100.63     LegendNANA
22:00 Legend Double Dagger 3.8 1.2 83 22 26 24.1 100.56     Cloudy
23:00 Legend Double Dagger 3.8 1.8 87 21 28 24.1 100.45     LegendNANA

Notes on Data Quality.

Legend

  • E = Estimated
  • M = Missing
  • NA = Not Available
  • ‡ = Partner data that is not subject to review by the National Climate Archives
Date modified: